Regional Weather Roundup
Issued by NWS

Home | Current Version | Previous Version | Graphics & Text | Print | Product List | Glossary On
Versions: 1 2 3 4 5 6 7 8 9 10 11 12 13 14 15 16 17 18 19 20 21 22 23 24 25 26 27 28 29 30 31 32 33 34 35 36 37 38 39 40 41 42 43 44 45 46 47 48 49 50
000
ASUS43 KOAX 050010
RWRNE

WEATHER ROUNDUP FOR NEBRASKA
NATIONAL WEATHER SERVICE OMAHA NE
600 PM CST SUN DEC 04 2016

NOTES: SATELLITE DATA IS BEING USED TO AUGMENT CLOUD COVER ABOVE
       12000 FEET.
       "FAIR" INDICATES FEW OR NO CLOUDS BELOW 12,000 FEET WITH NO
       SIGNIFICANT WEATHER AND/OR OBSTRUCTIONS TO VISIBILITY.

  * THESE STATIONS DO NOT REPORT WEATHER SUCH AS RAIN...SNOW OR FOG.

NEZ001>004-019>022-054>056-050100-
NEBRASKA PANHANDLE

CITY           SKY/WX    TMP DP  RH WIND       PRES   REMARKS
SCOTTSBLUFF    CLOUDY    41  17  38 SW6       29.73F
6HR MIN TEMP:  41; 6HR MAX TEMP:  51;

ALLIANCE       CLEAR     35  16  45 SW10      29.73F WCI  27
6HR MIN TEMP:  35; 6HR MAX TEMP:  49;

CHADRON        PTCLDY    37  17  44 S10       29.70F WCI  30
6HR MIN TEMP:  37; 6HR MAX TEMP:  50;

KIMBALL        CLOUDY    44  22  41 W10       29.75F
SIDNEY         CLEAR     34  10  37 S12       29.76F WCI  25
6HR MIN TEMP:  32; 6HR MAX TEMP:  48;

$$

NEZ057>060-069>072-079>082-050100-
SOUTHWEST NEBRASKA

CITY           SKY/WX    TMP DP  RH WIND       PRES   REMARKS
NORTH PLATTE   CLEAR     35  18  49 S5        29.82F WCI  31
6HR MIN TEMP:  35; 6HR MAX TEMP:  50;

IMPERIAL       CLEAR     39   9  29 S12       29.82F WCI  32
6HR MIN TEMP:  39; 6HR MAX TEMP:  52;

LEXINGTON      CLEAR     37  18  47 S5        29.85S WCI  33
MCCOOK         CLEAR     39  14  36 S8        29.86F WCI  33
6HR MIN TEMP:  39; 6HR MAX TEMP:  53;

OGALLALA       CLEAR     38  10  32 CALM      29.79F
$$

NEZ005>010-023>029-035>040-094-050100-
NORTH CENTRAL NEBRASKA

CITY           SKY/WX    TMP DP  RH WIND       PRES   REMARKS
VALENTINE      PTCLDY    37  14  38 S6        29.75F WCI  32
6HR MIN TEMP:  37; 6HR MAX TEMP:  49;

AINSWORTH      CLEAR     37  18  47 SW6       29.78F WCI  32
BROKEN BOW     CLEAR     34  16  47 CALM      29.82S
6HR MIN TEMP:  34; 6HR MAX TEMP:  51;

O`NEILL        CLEAR     41  24  50 SE3       29.81S
ORD            CLEAR     32  19  58 SW8       29.82S WCI  25
6HR MIN TEMP:  32; 6HR MAX TEMP:  52;

THEDFORD       CLOUDY    38  16  39 S8        29.78F WCI  33
$$

NEZ041-046>049-061>064-073>077-083>087-050100-
SOUTH CENTRAL NEBRASKA

CITY           SKY/WX    TMP DP  RH WIND       PRES   REMARKS
GRAND ISLAND   CLEAR     38  32  79 S8        29.88S WCI  32
6HR MIN TEMP:  38; 6HR MAX TEMP:  51;

AURORA         CLEAR     41  33  74 S9        29.88S
HASTINGS       CLEAR     40  30  67 S8        29.89S WCI  34
6HR MIN TEMP:  39; 6HR MAX TEMP:  49;

HEBRON         CLEAR     36  32  87 SW9       29.93F WCI  29
HOLDREGE       CLEAR     40  19  43 SW7       29.87S WCI  35
KEARNEY *      CLEAR     36  21  55 S8        29.87R WCI  29
YORK           CLEAR     39  36  87 S7        29.89S WCI  34
$$

NEZ011>018-030>034-042>045-050100-
NORTHEAST NEBRASKA

CITY           SKY/WX    TMP DP  RH WIND       PRES   REMARKS
NORFOLK        CLEAR     35  24  64 SW7       29.83F WCI  29
6HR MIN TEMP:  35; 6HR MAX TEMP:  50;

ALBION         CLEAR     38  25  59 SE3       29.84S
BLAIR          CLEAR     34  31  91 S6        29.89S WCI  29
FREMONT        CLEAR     33  32  96 SE5       29.89S WCI  28
TEKAMAH        CLEAR     34  31  88 S12       29.89S WCI  25
6HR MIN TEMP:  34; 6HR MAX TEMP:  43;

WAYNE          CLEAR     30  25  82 S5        29.84S WCI  25
$$

NEZ050>053-065>068-078-088>093-050100-
SOUTHEAST NEBRASKA

CITY           SKY/WX    TMP DP  RH WIND       PRES   REMARKS
LINCOLN        CLEAR     33  31  92 S6        29.93R WCI  28
6HR MIN TEMP:  32; 6HR MAX TEMP:  37;

OMAHA EPPLEY   CLEAR     33  28  81 S7        29.92R WCI  27
6HR MIN TEMP:  33; 6HR MAX TEMP:  42;

BEATRICE       CLEAR     36  32  87 SW5       29.95R WCI  32
FALLS CITY     CLEAR     38  35  89 S8        29.96S WCI  32
6HR MIN TEMP:  36; 6HR MAX TEMP:  44;

NEBRASKA CITY  CLEAR     35  32  89 SW8       29.94R WCI  28
PLATTSMOUTH    CLEAR     35  31  85 S8        29.92R WCI  28
$$

NEZ044-045-051>053-067-050100-
OMAHA AREA

CITY           SKY/WX    TMP DP  RH WIND       PRES   REMARKS
OMAHA EPPLEY   CLEAR     33  28  81 S7        29.92R WCI  27
6HR MIN TEMP:  33; 6HR MAX TEMP:  42;

BLAIR          CLEAR     34  31  91 S6        29.89S WCI  29
FREMONT        CLEAR     33  32  96 SE5       29.89S WCI  28
MILLARD        CLEAR     33  32  94 CALM      29.92S
OFFUTT AFB     CLEAR     32  32 100 S3        29.92R
PLATTSMOUTH    CLEAR     35  31  85 S8        29.92R WCI  28
WAHOO          FAIR      31  29  93 S7        29.90S WCI  24
$$




USA.gov is the U.S. government's official web portal to all federal, state and local government web resources and services.